Location: LDNL
(36.4545°S, 141.6685°E)
Time: 15:01:06
(UTC+10:00)

Hubble Space Telescope - Pass Details

Date: 03 July 2022
Orbit: 532 x 535 km, 28.5° (Epoch: 10 August)

Event Time Altitude Azimuth Distance (km) Brightness Sun altitude
Exits shadow 05:02:00 15° 42° (NE) 1,501 3.5 -32.1°
Drops below altitude 10° 05:02:56 10° 51° (NE) 1,787 4.1 -31.9°
Sets 05:05:27 0° 64° (ENE) 2,677 5.3 -31.4°
